This is the latest recevied weather packets stored in our database for station/object YB2VNE-13. If no packets are shown the sender has not sent any weather packets the latest 10 day(s).
| Time | Temp. | Humidity | Pressure | Rain* | Wind** | Luminosity | Snow |
|---|---|---|---|---|---|---|---|
| 1788588438 | 30° C | 47% | 999 hPa | - | - | 0 W/m² | - |
| 1788588114 | 30° C | 48% | 999 hPa | - | - | 0 W/m² | - |
| 1788587790 | 29.44° C | 51% | 999 hPa | - | - | 0 W/m² | - |
| 1788587466 | 29.44° C | 49% | 999 hPa | - | - | 0 W/m² | - |
| 1788587142 | 29.44° C | 50% | 1000 hPa | - | - | 0 W/m² | - |
| 1788586818 | 29.44° C | 49% | 1000 hPa | - | - | 0 W/m² | - |
| 1788586494 | 29.44° C | 49% | 1000 hPa | - | - | 0 W/m² | - |
| 1788586170 | 29.44° C | 49% | 1000 hPa | - | - | 0 W/m² | - |
| 1788585846 | 29.44° C | 50% | 1000 hPa | - | - | 0 W/m² | - |
| 1788585523 | 29.44° C | 50% | 1000 hPa | - | - | 0 W/m² | - |
| 1788585199 | 29.44° C | 51% | 1000 hPa | - | - | 0 W/m² | - |
| 1788584875 | 29.44° C | 51% | 1000 hPa | - | - | 0 W/m² | - |
| 1788584551 | 28.89° C | 52% | 1000 hPa | - | - | 0 W/m² | - |
| 1788584227 | 28.89° C | 53% | 1000 hPa | - | - | 0 W/m² | - |
| 1788583903 | 28.89° C | 52% | 1000 hPa | - | - | 0 W/m² | - |
| 1788583579 | 28.89° C | 54% | 1001 hPa | - | - | 0 W/m² | - |
| 1788583255 | 28.33° C | 53% | 1001 hPa | - | - | 0 W/m² | - |
| 1788582931 | 28.89° C | 53% | 1001 hPa | - | - | 0 W/m² | - |
| 1788582608 | 28.89° C | 53% | 1001 hPa | - | - | 0 W/m² | - |
| 1788582283 | 29.44° C | 52% | 1001 hPa | - | - | 0 W/m² | - |
| 1788581959 | 28.33° C | 54% | 1001 hPa | - | - | 0 W/m² | - |
| 1788581635 | 28.33° C | 54% | 1001 hPa | - | - | 0 W/m² | - |
| 1788581311 | 28.89° C | 54% | 1001 hPa | - | - | 0 W/m² | - |
| 1788580988 | 27.78° C | 56% | 1001 hPa | - | - | 0 W/m² | - |
| 1788580664 | 27.78° C | 56% | 1001 hPa | - | - | 0 W/m² | - |
* Rain since midnight (hover to see other rain measurements)
** Current wind speed in m/s (hover to see current wind gust speed)